GW2465 Weather Reports


time (UTC)temp
C
wind
direction
speed
KPH
gust
KPH
rain 1hr
cm
rain 24hr
cm
rain mn
cm
humidity
%
barometer
mb
20260507050103 7 331 3.2 8.0 0.00 0.94 0.00 89 1011.0
20260507044549 7 360 4.8 11.3 0.00 0.94 0.00 88 1010.8
20260507043040 7 331 6.4 12.9 0.00 0.94 0.00 87 1010.4
20260507041544 7 49 3.2 9.7 0.00 0.94 0.00 87 1010.5
20260507040049 7 355 3.2 8.0 0.00 0.94 0.00 87 1010.6
20260507034542 7 306 3.2 12.9 0.00 0.94 0.94 86 1011.3
20260507033046 7 346 4.8 11.3 0.00 0.94 0.94 86 1011.0
20260507031540 7 326 4.8 9.7 0.00 0.94 0.94 87 1010.9
20260507030044 7 44 3.2 12.9 0.00 0.94 0.94 88 1010.9
20260507024547 7 52 4.8 11.3 0.00 0.94 0.94 89 1010.6
20260507023043 7 15 4.8 12.9 0.00 0.94 0.94 89 1011.0
20260507021554 7 53 6.4 14.5 0.00 0.94 0.94 90 1011.2
20260507020039 7 68 4.8 12.9 0.00 0.94 0.94 90 1011.3
20260507014540 7 35 4.8 14.5 0.00 0.94 0.94 90 1011.7
20260507013047 7 32 4.8 14.5 0.00 0.94 0.94 90 1011.5
20260507011547 7 25 4.8 17.7 0.00 0.94 0.94 89 1011.5
20260507010045 8 64 6.4 16.1 0.00 0.94 0.94 90 1011.2
20260507004550 8 44 8.0 19.3 0.00 0.94 0.94 91 1010.9
20260507003038 8 11 6.4 16.1 0.00 0.94 0.94 91 1010.6
20260507001544 8 344 6.4 16.1 0.00 0.94 0.94 91 1010.4
20260507000046 8 48 9.7 17.7 0.00 0.94 0.94 91 1010.1
20260506234605 8 12 8.0 22.5 0.00 0.94 0.94 91 1009.6
20260506233042 9 36 12.9 19.3 0.00 0.94 0.94 92 1009.5
20260506231546 10 53 6.4 16.1 0.00 0.94 0.94 92 1009.4
20260506230042 11 50 8.0 22.5 0.00 0.94 0.94 90 1009.3
20260506224547 13 13 14.5 25.7 0.00 0.94 0.94 86 1008.9
20260506223047 15 267 4.8 16.1 0.00 0.94 0.94 88 1008.2
20260506221543 15 289 4.8 14.5 0.00 0.94 0.94 90 1008.0
20260506220043 15 325 1.6 6.4 0.00 0.94 0.94 90 1007.8
20260506214548 15 264 1.6 12.9 0.00 0.94 0.94 88 1007.8
20260506213045 15 264 3.2 17.7 0.00 0.94 0.94 87 1007.5
20260506211545 16 261 1.6 12.9 0.00 0.94 0.94 87 1007.3
20260506210045 15 360 6.4 16.1 0.00 0.94 0.94 88 1007.2
20260506204557 15 271 3.2 9.7 0.00 0.94 0.94 89 1007.2
20260506203042 15 233 3.2 9.7 0.00 0.94 0.94 91 1007.1
20260506201547 15 350 3.2 8.0 0.00 0.94 0.94 92 1007.2
20260506200106 15 252 4.8 12.9 0.00 0.94 0.94 92 1007.1
20260506194558 14 269 4.8 16.1 0.00 0.94 0.94 92 1007.3
20260506193043 14 221 4.8 11.3 0.00 0.94 0.94 92 1007.2
20260506191541 14 211 6.4 14.5 0.00 0.94 0.94 92 1007.3
20260506190047 14 229 4.8 12.9 0.00 0.94 0.94 94 1007.3
20260506184550 14 200 3.2 9.7 0.00 0.94 0.94 95 1007.4
20260506183101 13 199 4.8 9.7 0.03 0.94 0.94 95 1007.5
20260506181554 13 197 6.4 14.5 0.05 0.94 0.94 94 1007.7
20260506180048 13 172 4.8 11.3 0.08 0.94 0.94 95 1007.6
20260506174546 13 215 6.4 12.9 0.10 0.94 0.94 95 1007.8
20260506173055 13 207 3.2 9.7 0.08 0.91 0.91 94 1007.7
20260506171550 13 202 4.8 14.5 0.10 0.89 0.89 94 1007.7
20260506170046 13 182 4.8 11.3 0.08 0.86 0.86 94 1008.0
20260506164551 13 210 6.4 11.3 0.08 0.84 0.84 93 1007.7
20260506163052 13 194 6.4 12.9 0.10 0.81 0.81 93 1007.8
20260506161602 13 217 6.4 11.3 0.13 0.79 0.79 93 1007.8
20260506160046 13 203 4.8 16.1 0.25 0.79 0.79 93 1007.7
20260506154555 13 227 4.8 11.3 0.33 0.76 0.76 93 1007.8
20260506153045 13 55 4.8 11.3 0.36 0.71 0.71 93 1007.9
20260506151600 13 93 3.2 9.7 0.33 0.66 0.66 93 1008.1
20260506150052 13 207 6.4 16.1 0.25 0.53 0.53 92 1008.3
20260506144541 13 194 3.2 11.3 0.18 0.43 0.43 92 1008.0
20260506143054 13 180 4.8 14.5 0.13 0.36 0.36 92 1008.1
20260506141547 13 205 3.2 16.1 0.18 0.33 0.33 92 1008.0
20260506140056 13 196 6.4 14.5 0.18 0.28 0.28 91 1008.3
20260506134544 13 177 4.8 11.3 0.20 0.25 0.25 91 1008.3
20260506133051 13 205 4.8 11.3 0.20 0.23 0.23 91 1008.7
20260506131541 13 164 3.2 9.7 0.15 0.15 0.15 89 1008.8
20260506124546 14 196 4.8 11.3 0.05 0.05 0.05 86 1009.1
20260506123044 15 227 4.8 9.7 0.03 0.03 0.03 82 1009.1
20260506121551 15 187 4.8 12.9 0.00 0.00 0.00 80 1008.8
20260506120043 15 188 3.2 9.7 0.00 0.00 0.00 79 1008.8
20260506114548 15 189 3.2 9.7 0.00 0.00 0.00 77 1008.7
20260506113046 15 230 6.4 14.5 0.00 0.00 0.00 76 1008.6
20260506111543 15 195 4.8 11.3 0.00 0.00 0.00 75 1008.5
20260506110050 15 194 4.8 9.7 0.00 0.00 0.00 73 1008.4
20260506104541 15 200 4.8 9.7 0.00 0.00 0.00 72 1008.2
20260506103046 15 193 3.2 8.0 0.00 0.00 0.00 71 1007.9
20260506101554 15 175 3.2 9.7 0.00 0.00 0.00 69 1007.9
20260506100046 16 189 4.8 11.3 0.00 0.00 0.00 66 1008.0
20260506094552 16 180 4.8 12.9 0.00 0.00 0.00 65 1008.0
20260506093047 16 174 4.8 9.7 0.00 0.00 0.00 64 1008.1
20260506091541 16 219 4.8 9.7 0.00 0.00 0.00 62 1008.3
20260506090047 17 187 4.8 12.9 0.00 0.00 0.00 61 1008.2
20260506084542 17 202 4.8 9.7 0.00 0.00 0.00 60 1008.3
20260506083045 17 206 3.2 14.5 0.00 0.00 0.00 58 1008.5
20260506081542 17 221 3.2 12.9 0.00 0.00 0.00 57 1008.6
20260506073049 17 161 6.4 16.1 0.00 0.00 0.00 54 1008.5
20260506071600 17 168 4.8 14.5 0.00 0.00 0.00 53 1008.7
20260506061546 18 167 8.0 17.7 0.00 0.00 0.00 50 1009.2